Regional Weather Roundup
Issued by NWS

Home | Current Version | Previous Version | Graphics & Text | Print | Product List | Glossary On
Versions: 1 2 3 4 5 6 7 8 9 10 11 12 13 14 15 16 17 18 19 20 21 22 23 24 25 26 27 28 29 30 31 32 33 34 35 36 37 38 39 40 41 42 43 44 45 46 47 48 49 50
000
ASUS44 KMEG 221710
RWRTN
TENNESSEE HOURLY STATE WEATHER ROUNDUP
NATIONAL WEATHER SERVICE MEMPHIS TN
1100 AM CST SUN JAN 22 2017

TNZ002-004-019-021-049-052-054-088>092-221800-
WEST TENNESSEE

CITY           SKY/WX    TMP DP  RH WIND       PRES   REMARKS
MEMPHIS INTL   CLOUDY    57  55  93 VRB3      29.38S
NWS MEMPHIS      N/A     56 N/A N/A MISG        N/A
JACKSON        CLOUDY    58  56  93 NE7       29.37F
DYERSBURG      CLOUDY    57  52  82 SE6       29.40F
UNION CITY     MOSUNNY   61  59  94 CALM      29.40F
PARIS          PTSUNNY   57  52  82 CALM      29.42F
HUNTINGDON     CLOUDY    59  54  82 SE7       29.41F
$$

TNZ008-025-027-028-033-062-065-066-221800-
NORTH MIDDLE TENNESSEE

CITY           SKY/WX    TMP DP  RH WIND       PRES   REMARKS
NASHVILLE      PTSUNNY   61  55  81 E7        29.45F
PORTLAND       PTSUNNY   63  54  72 VRB5      29.45F
CLARKSVILLE    CLOUDY    59  52  77 E9        29.45S
SMYRNA         PTSUNNY   63  55  77 SE5       29.46F
GALLATIN       CLOUDY    63  55  77 SE3       29.48F
CROSSVILLE     CLOUDY    57  51  80 S8        29.48F
$$

TNZ061-075-076-078-094-096-097-221800-
SOUTH MIDDLE TENNESSEE

CITY           SKY/WX    TMP DP  RH WIND       PRES   REMARKS
TULLAHOMA      CLOUDY    57  54  88 SE6       29.46F
WINCHESTER     CLOUDY    61  55  82 S7        29.46F
MCMINNVILLE    SUNNY     61  55  82 S6        29.46F
COLUMBIA       CLOUDY    61  61 100 SE8       29.41F
SHELBYVILLE    CLOUDY    61  55  82 S7        29.47S
$$

TNZ017-018-042-046-047-221800-
NORTHEAST TENNESSEE

CITY           SKY/WX    TMP DP  RH WIND       PRES   REMARKS
TRI CITIES     CLOUDY    60  53  77 CALM      29.51F
ELIZABETHTON   CLOUDY    64  50  59 CALM      29.51F
$$

TNZ012-013-036-069-073-074-221800-
CENTRAL EAST TENNESSEE

CITY           SKY/WX    TMP DP  RH WIND       PRES   REMARKS
KNOXVILLE      CLOUDY    66  51  58 SW20      29.45F
OAK RIDGE      PTSUNNY   61  54  77 W6        29.48F
GATLINBURG     SUNNY     64  52  63 NW6       29.45F
MORRISTOWN     CLOUDY    61  55  82 NE5       29.47F
JACKSBORO      CLOUDY    54  52  94 NE6       29.50F
$$

TNZ083-085-099-221800-
SOUTHEAST TENNESSEE

CITY           SKY/WX    TMP DP  RH WIND       PRES   REMARKS
CHATTANOOGA    CLOUDY    62  54  74 S9        29.48F
$$

SKY/WX REPORTED AS FAIR MEANS FEW OR NO CLOUDS BELOW
12 THOUSAND FEET.





USA.gov is the U.S. government's official web portal to all federal, state and local government web resources and services.